ATLAS 5 CENTAUR DEB, 44106

Orbit data source: Space-Track

ATLAS 5 CENTAUR DEB, 44106 is space debris in HEO originally from a launch on Wed, 17 Sep 2014 UTC launched from the Air Force Eastern Test Range (AFETR). Debris objects in space refer to the collection of defunct objects orbiting the Earth. Examples of debris include non-operational satellites, rocket bodies, and fragments generated from explosions, collisions, or faulty payload assembly.

Loading next visibility...
Identifier
44106, 2014-055CB
Orbit
HEO
Country
Flag of USUS
Related business
Flag of USUnited Launch Alliance/Lockheed Martin (US)
Manufacturer
Unknown
Mission
Spacecraft
Bus & Motor
Unknown
Mass
Unknown
Launch date (UTC)
2014-09-17 (11 years ago)
Launch vehicle
Unknown
Launch site
Air Force Eastern Test Range (AFETR)
Object type
Payload
Rocket body
Debris
Shape & HBR
Unknown shape, 1.1 m
Radar Cross Section
Small (<0.1 m²)

Expand to show TLE details & history
Last TLE update: 18 hours ago

TLE from 18 hours ago
0 ATLAS 5 CENTAUR DEB
1 44106U 14055CB  26065.40698938 -.00000070  00000-0  00000-0 0  9994
2 44106  19.9258 152.6279 4845787 148.4209 252.8594  1.84992182 47846
Epoch: 2026-03-06T09:46Z
TLE epoch observation values (Epoch: 2026-03-06T09:46:03.882Z)
Latitude
-0°
Longitude
-158.04391°
Altitude
30,176.361 km
Speed
2.755 km/s
True Right ascension
10h 10m 27s
True Declination
0° 00' 00"
Sunlit
Object was in daylight at epoch
Visualization orbit readout
Latitude
Unknown
Longitude
Unknown
Altitude
Unknown
Speed
Unknown
Apparent Right ascension
Unknown
Apparent Declination
Unknown
Sunlit
N/A
Visualization observer readout
Local Sidereal Time
07:38:05
Azimuth
Unknown
Elevation
Unknown
Doppler factor
Unknown
Orbital elements
Apogee altitude
35,238.449 km
Perigee altitude
8,070.457 km
Semi-major axis
28,032.59 km
Eccentricity
0.48458
Inclination
19.9258°
RAAN
152.6279°
Arg. of periapsis
148.4209°
True anomaly
211.54075°
Mean anomaly
252.8594°
Eccentric anomaly
231.21658°
Mean motion
0.46243 °/min
Orbital period
778.49 mins
BSTAR
0
Loading maneuver chart data...
Computing Atmospheric mass density...

Documentation

Showing up to 5 results
|